Big Piney, WY

5:47 PM MDT on July 24, 2017 (GMT -0600)
Big Piney-Marbleton

Weather History for KBPI - March, 2013

Change the Weather History Date:

Friday, March 8, 2013

  Actual Average Record
Temperature  
Mean Temperature 34 °F 24 °F  
Max Temperature 43 °F 38 °F 50 °F (2001)
Min Temperature 25 °F 10 °F -23 °F (1998)
Degree Days  
Heating Degree Days 31 41  
Month to date heating degree days 303 344  
Since 1 July heating degree days 7167 7867  
Cooling Degree Days 0 0  
Month to date cooling degree days 0 0  
Year to date cooling degree days 0 0  
Moisture  
Dew Point 25 °F    
Average Humidity 69    
Maximum Humidity 92    
Minimum Humidity 46    
Precipitation  
Precipitation T in 0.01 in 0.28 in (1989)
Month to date precipitation T 0.08  
Year to date precipitation 0.16 0.74  
Sea Level Pressure  
Sea Level Pressure 29.80 in    
Wind  
Wind Speed 6 mph (North)    
Max Wind Speed 14 mph    
Max Gust Speed 18 mph    
Visibility 10 miles    
Events Snow    
T = Trace of Precipitation, MM = Missing Value Source: NWS Daily Summary

Daily Weather History Graph

Daily Weather History Graph

Search for Another Location

Airport or City:

Trip Planner

Search our weather history database for the weather conditions in past years. The results will help you decide how hot, cold, wet, or windy it might be!

Date:

Astronomy

Mar. 08, 2013 Rise Set
Actual Time 6:43 AM MST 6:19 PM MST
Civil Twilight 6:15 AM MST 6:47 PM MST
Nautical Twilight 5:43 AM MST 7:19 PM MST
Astronomical Twilight 5:10 AM MST 7:52 PM MST
Moon 4:34 AM MST (3/8) 3:14 PM MST (3/8)
Length of Visible Light 12h 31m
Length of Day
11h 35m
Waning Crescent, 11% of the Moon is Illuminated
Mar 8
Waning Crescent
Mar 11
New
Mar 19
First Quarter
Mar 27
Full
Apr 2
Last Quarter

Hourly Weather History & Observations

Time (MST) Temp. Windchill Dew Point Humidity Pressure Visibility Wind Dir Wind Speed Gust Speed Precip Events Conditions
12:53 AM 28.9 °F 22.8 °F 23.0 °F 78% 29.92 in 8.0 mi NE 5.8 mph - 0.00 in Snow Light Snow
1:53 AM 28.9 °F 23.9 °F 24.1 °F 82% 29.92 in 10.0 mi NW 4.6 mph - 0.00 in   Overcast
2:53 AM 28.0 °F 19.3 °F 24.1 °F 85% 29.88 in 10.0 mi NE 9.2 mph - 0.00 in   Overcast
3:53 AM 28.0 °F 20.8 °F 25.0 °F 88% 29.86 in 10.0 mi North 6.9 mph - N/A   Overcast
4:53 AM 26.6 °F 17.5 °F 24.8 °F 93% 29.88 in 10.0 mi NW 9.2 mph - N/A   Mostly Cloudy
5:53 AM 27.0 °F 19.5 °F 24.1 °F 89% 29.87 in 10.0 mi NW 6.9 mph - N/A   Overcast
6:53 AM 26.1 °F 16.8 °F 21.9 °F 84% 29.89 in 10.0 mi NNW 9.2 mph - N/A   Mostly Cloudy
7:53 AM 28.0 °F 22.8 °F 24.1 °F 85% 29.89 in 10.0 mi NNW 4.6 mph - N/A   Overcast
8:53 AM 30.0 °F - 25.0 °F 82% 29.88 in 10.0 mi Calm Calm - N/A   Mostly Cloudy
9:53 AM 33.1 °F 27.7 °F 26.1 °F 75% 29.85 in 10.0 mi Variable 5.8 mph - N/A   Scattered Clouds
10:53 AM 37.0 °F - 26.1 °F 65% 29.82 in 10.0 mi Calm Calm - N/A   Mostly Cloudy
11:53 AM 39.0 °F 35.7 °F 26.1 °F 60% 29.79 in 10.0 mi Variable 4.6 mph - N/A   Clear
12:53 PM 41.0 °F 38.0 °F 25.0 °F 53% 29.75 in 10.0 mi SSE 4.6 mph - N/A   Scattered Clouds
1:53 PM 42.1 °F 39.2 °F 24.1 °F 49% 29.72 in 10.0 mi South 4.6 mph - N/A   Scattered Clouds
2:53 PM 42.1 °F - 24.1 °F 49% 29.72 in 10.0 mi Calm Calm - N/A   Mostly Cloudy
3:53 PM 41.0 °F - 23.0 °F 49% 29.72 in 10.0 mi Calm Calm - N/A   Overcast
4:53 PM 39.9 °F 36.7 °F 25.0 °F 55% 29.71 in 10.0 mi NW 4.6 mph - N/A   Overcast
5:53 PM 37.0 °F 31.6 °F 28.0 °F 70% 29.72 in 10.0 mi North 6.9 mph - N/A   Scattered Clouds
6:53 PM 34.0 °F 27.2 °F 27.0 °F 75% 29.75 in 10.0 mi NNW 8.1 mph - N/A   Partly Cloudy
7:53 PM 33.1 °F 26.9 °F 26.1 °F 75% 29.74 in 10.0 mi North 6.9 mph - N/A   Clear
8:53 PM 33.1 °F 24.9 °F 25.0 °F 72% 29.73 in 10.0 mi North 10.4 mph - N/A   Clear
9:53 PM 33.1 °F 24.4 °F 25.0 °F 72% 29.72 in 10.0 mi North 11.5 mph - N/A   Clear
10:53 PM 30.9 °F 23.5 °F 25.0 °F 79% 29.70 in 10.0 mi NNW 8.1 mph - N/A   Mostly Cloudy
11:53 PM 32.0 °F 23.6 °F 23.0 °F 69% 29.68 in 10.0 mi North 10.4 mph - N/A   Mostly Cloudy